Weather History for KMTC - May, 2013

Change the Weather History Date:

Sunday, May 12, 2013

  Actual Average Record
Temperature  
Mean Temperature 43 °F -  
Max Temperature 50 °F 64 °F 84 °F (1956)
Min Temperature 37 °F 46 °F 34 °F (1966)
Degree Days  
Heating Degree Days 22    
Moisture  
Dew Point 28 °F    
Average Humidity 58    
Maximum Humidity 81    
Minimum Humidity 42    
Precipitation  
Precipitation 0.00 in - - ()
Sea Level Pressure  
Sea Level Pressure 29.94 in    
Wind  
Wind Speed 14 mph (West)    
Max Wind Speed 25 mph    
Max Gust Speed 32 mph    
Visibility 11 miles    
Events Rain    
Averages and records for this station are not official NWS values.
T = Trace of Precipitation, MM = Missing Value Source: NWS Daily Summary

Daily Weather History Graph

Daily Weather History Graph

Search for Another Location

Airport or City:

Trip Planner

Search our weather history database for the weather conditions in past years. The results will help you decide how hot, cold, wet, or windy it might be!

Date:

Astronomy

May. 12, 2013 Rise Set
Actual Time 6:12 AM EDT 8:43 PM EDT
Civil Twilight 5:40 AM EDT 9:16 PM EDT
Nautical Twilight 5:00 AM EDT 9:56 PM EDT
Astronomical Twilight 4:15 AM EDT 10:41 PM EDT
Moon 8:05 AM EDT (5/12) 11:10 PM EDT (5/12)
Length of Visible Light 15h 35m
Length of Day
14h 31m
Waxing Crescent, 6% of the Moon is Illuminated
May 12
Waxing Crescent
May 18
First Quarter
May 25
Full
May 31
Last Quarter
Jun 8
New

Hourly Weather History & Observations

Time (EDT) Temp. Windchill Dew Point Humidity Pressure Visibility Wind Dir Wind Speed Gust Speed Precip Events Conditions
12:58 AM 38.3 °F 33.2 °F 32.4 °F 79% 29.89 in 10.0 mi WSW 6.9 mph - N/A   Clear
1:58 AM 38.8 °F 32.6 °F 32.5 °F 78% 29.89 in 10.0 mi WSW 9.2 mph - N/A   Clear
2:58 AM 38.5 °F 31.6 °F 32.9 °F 80% 29.87 in 10.0 mi SW 10.4 mph - N/A   Clear
3:58 AM 38.3 °F 31.4 °F 32.9 °F 81% 29.85 in 10.0 mi WSW 10.4 mph - N/A   Clear
4:58 AM 38.8 °F 30.8 °F 31.3 °F 74% 29.86 in 10.0 mi West 13.8 mph 20.7 mph N/A   Clear
5:55 AM 38.3 °F 31.4 °F 30.2 °F 73% 29.86 in 12.0 mi West 10.4 mph - N/A   Partly Cloudy
6:55 AM 39.2 °F 31.6 °F 30.2 °F 70% 29.88 in 12.0 mi West 12.7 mph 24.2 mph N/A   Mostly Cloudy
7:55 AM 40.1 °F 30.7 °F 29.8 °F 67% 29.88 in 12.0 mi WNW 19.6 mph 28.8 mph N/A   Mostly Cloudy
8:55 AM 43.5 °F 35.5 °F 29.5 °F 58% 29.89 in 12.0 mi West 18.4 mph 29.9 mph N/A   Scattered Clouds
9:24 AM 42.8 °F 33.5 °F 28.4 °F 57% 29.87 in 10.0 mi WNW 23.0 mph 28.8 mph N/A   Mostly Cloudy
9:55 AM 43.0 °F 34.0 °F 29.3 °F 59% 29.91 in 12.0 mi West 21.9 mph 32.2 mph N/A   Mostly Cloudy
10:59 AM 44.1 °F 35.4 °F 28.6 °F 55% 29.92 in 12.0 mi WNW 21.9 mph 28.8 mph N/A   Mostly Cloudy
11:58 AM 46.4 °F 39.5 °F 27.9 °F 48% 29.92 in 12.0 mi West 17.3 mph 29.9 mph N/A   Mostly Cloudy
12:59 PM 46.9 °F - 27.3 °F 46% 29.93 in 12.0 mi West 15.0 mph 26.5 mph N/A   Mostly Cloudy
1:58 PM 48.6 °F - 26.4 °F 42% 29.93 in 12.0 mi West 17.3 mph 32.2 mph N/A   Mostly Cloudy
2:59 PM 48.9 °F - 30.6 °F 49% 29.95 in 12.0 mi West 19.6 mph 28.8 mph N/A   Mostly Cloudy
3:53 PM 48.2 °F - 28.4 °F 46% 29.92 in 10.0 mi West 25.3 mph 29.9 mph N/A Rain Light Rain Showers
3:59 PM 46.9 °F - 32.5 °F 57% 29.96 in 10.0 mi West 20.7 mph 29.9 mph N/A Rain Light Rain Showers
4:20 PM 46.4 °F 40.4 °F 32.0 °F 57% 29.93 in 12.0 mi West 13.8 mph - N/A   Mostly Cloudy
4:59 PM 45.9 °F 37.6 °F 27.3 °F 48% 29.98 in 12.0 mi West 23.0 mph 31.1 mph N/A   Mostly Cloudy
5:59 PM 44.8 °F 36.9 °F 26.6 °F 49% 30.01 in 12.0 mi WNW 19.6 mph 28.8 mph N/A   Mostly Cloudy
6:55 PM 43.2 °F 34.0 °F 25.3 °F 49% 30.03 in 12.0 mi West 23.0 mph 28.8 mph N/A   Mostly Cloudy
7:58 PM 42.6 °F 34.3 °F 23.7 °F 47% 30.04 in 10.0 mi WNW 18.4 mph 27.6 mph N/A   Overcast
8:58 PM 41.4 °F 34.0 °F 23.0 °F 48% 30.06 in 10.0 mi WNW 13.8 mph - N/A   Overcast
9:58 PM 40.1 °F 32.7 °F 23.4 °F 51% 30.08 in 10.0 mi NW 12.7 mph 24.2 mph N/A   Scattered Clouds
10:58 PM 39.0 °F 31.0 °F 23.2 °F 53% 30.09 in 10.0 mi NW 13.8 mph 20.7 mph N/A   Scattered Clouds
11:58 PM 37.2 °F 30.6 °F 22.3 °F 55% 30.09 in 10.0 mi WNW 9.2 mph - N/A   Clear